Location: Unspecified
(0.0000°N, 0.0000°E)
Time: 07:16:21
(UTC+00:00)

Vanguard 3 - Pass Details

Date: 09 December 2017
Orbit: 508 x 3264 km, 33.4° (Epoch: 15 January)

Event Time Altitude Azimuth Distance (km) Brightness Sun altitude
Rises 01:21:34 0° 261° (W) 6,399 - -58.5°
Reaches altitude 10° 01:26:54 10° 249° (WSW) 5,730 - -57.6°
Exits shadow 01:32:58 20° 230° (SW) 5,214 11.1 -56.5°
Maximum altitude 01:40:45 25° 200° (SSW) 5,014 11.1 -55.1°
Drops below altitude 10° 01:55:22 10° 152° (SSE) 5,978 11.9 -52.4°
Sets 02:01:16 0° 139° (SE) 6,709 12.4 -51.2°
